Location: ??? ????
(38.0580°N, 23.1536°E)
Time: 14:44:23
(UTC+00:00)

Cosmos 2082 - Pass Details

Date: 13 December 2025
Orbit: 831 x 855 km, 71.0° (Epoch: 17 January)

Event Time Altitude Azimuth Distance (km) Brightness Sun altitude
Rises 17:14:17 0° 336° (NNW) 3,425 7.0 -24.0°
Reaches altitude 10° 17:16:44 10° 336° (NNW) 2,488 6.3 -24.5°
Maximum altitude 17:22:28 83° 250° (WSW) 865 3.7 -25.6°
Drops below altitude 10° 17:28:10 10° 162° (SSE) 2,477 6.0 -26.7°
Sets 17:30:36 0° 162° (SSE) 3,409 6.8 -27.2°
